Theta_e
290 290 290 289 289 289 288 288 288 288 288 288 288 288 289 289 289 289 289 289 289 289 289 288 288 287 287 287 286 286 285 285 284 284 283 283 283 282 282 282 282 282
289 289 289 289 289 288 288 288 288 288 288 288 288 288 289 289 289 289 289 289 289 288 288 288 287 287 286 286 285 285 284 284 284 283 283 283 282 282 282 282 282 281
289 289 289 289 288 288 288 288 288 288 288 288 288 288 289 289 289 289 289 288 288 288 287 287 286 286 285 285 284 284 284 284 284 284 283 283 282 282 282 282 281 281
289 289 289 288 288 288 288 288 288 288 288 288 288 288 288 289 288 288 288 288 287 287 286 286 285 285 284 284 284 284 284 284 284 284 283 282 282 281 281 281 280 281
288 288 288 288 288 288 288 288 288 288 288 288 288 288 288 288 288 288 287 287 286 286 285 285 284 284 284 284 284 284 285 284 284 283 281 281 281 280 280 280 280 280
288 288 288 288 288 288 288 288 288 288 288 288 288 288 288 288 288 287 287 286 286 285 285 284 284 284 284 284 285 284 284 284 283 282 281 280 280 279 279 278 279 279
288 288 288 288 288 288 287 287 288 288 288 288 288 288 288 288 287 287 286 286 285 285 284 284 284 284 284 284 284 284 284 284 283 282 281 281 280 279 278 277 277 278
288 288 288 288 288 287 287 287 288 288 288 288 288 288 288 287 287 286 286 285 285 284 284 284 284 284 285 284 284 285 284 284 283 282 281 280 280 279 278 276 276 276
288 288 288 288 287 287 287 287 288 288 288 288 288 288 287 287 287 286 286 285 284 284 284 284 284 284 284 284 284 284 284 284 283 281 280 279 279 278 276 274 275 275
288 288 288 287 287 287 287 287 288 288 288 288 287 287 287 287 286 286 285 284 284 284 284 284 284 284 284 284 284 284 284 284 283 281 280 279 278 276 274 273 273 273
288 288 287 287 287 287 287 287 288 288 288 288 287 287 287 286 286 285 284 284 284 284 284 284 284 284 284 284 284 284 283 283 283 281 279 278 276 274 272 271 271 271
288 288 287 287 287 287 287 288 288 288 288 287 287 287 286 286 285 284 284 284 284 284 284 284 284 284 284 284 283 283 283 282 281 279 276 274 273 271 270 270 270 270
288 287 287 287 287 287 288 288 288 288 287 287 287 286 286 285 285 284 284 283 283 284 284 284 284 284 283 283 283 282 282 281 278 276 273 271 271 270 270 270 270 270
287 287 287 287 287 287 288 288 287 287 287 286 286 286 285 285 284 283 283 283 283 283 284 284 283 283 283 282 282 281 281 279 275 273 271 271 271 271 271 271 271 271
287 287 287 287 287 287 287 287 287 287 286 286 286 285 285 284 283 283 283 283 283 283 283 283 283 283 282 281 281 280 279 276 273 271 271 271 271 271 271 271 272 272
287 287 287 287 287 287 287 287 287 286 286 286 286 285 284 283 283 283 283 283 283 283 283 283 282 282 281 281 280 279 277 274 272 271 271 271 271 271 271 271 272 272
287 287 287 287 287 287 287 287 286 286 286 286 285 284 283 283 282 282 282 283 283 283 283 282 282 281 281 280 280 278 276 273 272 271 271 271 272 272 272 272 272 272
287 287 287 287 287 287 287 286 286 286 286 285 285 284 283 282 282 282 282 282 282 282 282 282 281 281 280 280 280 278 275 272 271 272 272 272 272 272 272 272 273 273
287 287 287 287 287 287 286 286 286 286 286 285 284 283 282 282 282 282 282 282 282 282 281 281 281 280 280 280 279 278 274 272 272 272 272 272 273 272 273 273 273 273
287 287 287 287 287 287 286 286 286 285 285 285 284 283 282 281 282 282 282 282 281 281 281 280 280 280 280 280 280 278 274 272 272 272 272 272 272 272 272 272 273 273
287 287 287 287 287 286 286 285 285 285 285 284 283 282 281 281 281 281 281 281 281 281 280 280 280 280 280 280 280 278 274 272 272 272 272 272 272 272 272 272 273 273
287 287 287 287 286 285 285 285 285 285 284 284 283 282 281 281 281 281 281 281 281 280 279 280 280 279 279 280 279 276 273 272 272 272 272 272 272 272 272 272 272 272
287 287 287 286 285 285 285 285 284 284 284 283 282 281 281 281 280 280 280 280 280 279 279 279 280 279 279 279 277 274 272 272 272 272 273 272 272 272 272 272 272 272
287 287 286 286 285 285 285 285 284 283 283 283 282 281 280 280 280 280 280 280 279 279 279 279 279 279 278 278 275 272 272 272 272 273 273 273 273 273 273 273 273 273
287 286 286 285 284 284 284 284 283 283 283 282 281 280 280 280 279 279 279 279 279 279 279 279 279 278 278 276 273 272 272 273 273 273 273 273 273 273 274 274 274 274
286 286 285 284 284 284 284 283 283 283 283 282 280 280 279 279 279 279 279 278 278 278 279 278 277 277 276 274 272 272 272 273 273 274 274 274 274 274 274 274 274 274
Wind_Speed
21 20 20 19 18 17 17 17 17 17 18 19 21 22 23 24 25 28 30 33 36 39 41 42 43 43 42 41 41 41 41 40 41 41 42 41 40 40 41 40 39 38
22 21 20 19 17 16 17 17 17 18 18 20 22 24 25 26 28 31 33 36 39 41 42 43 42 41 39 39 38 38 39 39 40 40 41 40 38 38 40 40 40 38
23 21 20 18 17 17 17 17 17 18 20 21 23 25 27 29 31 33 36 39 41 42 42 41 40 38 37 36 37 37 38 39 40 40 40 40 38 37 39 39 40 39
23 21 19 18 17 17 17 17 18 20 21 23 24 26 28 31 33 36 38 40 41 41 40 38 37 35 35 36 36 38 39 40 42 41 39 40 39 38 39 38 39 41
23 20 19 18 18 18 17 18 19 21 22 24 25 27 30 33 35 37 39 40 39 38 37 36 35 34 35 36 38 40 41 42 43 41 39 41 41 38 37 39 43 43
23 21 19 19 18 18 18 19 20 22 23 24 26 28 31 34 36 37 38 38 38 36 35 34 34 35 36 38 40 41 43 44 43 41 41 43 42 39 38 43 46 44
23 21 20 19 19 18 19 20 21 22 23 25 27 29 32 34 36 37 37 37 37 36 35 35 36 37 38 40 41 42 44 45 45 44 45 46 45 44 43 44 44 41
24 22 21 20 19 19 19 20 21 23 24 26 28 30 32 34 35 36 36 36 35 35 35 36 37 38 39 40 42 43 44 46 46 45 46 46 47 48 47 43 39 38
24 22 21 20 19 19 20 20 21 23 25 27 29 31 32 34 35 35 35 34 34 34 35 36 37 38 40 40 42 44 45 47 47 45 44 45 47 48 47 42 37 36
25 23 21 20 20 19 20 21 22 24 26 27 29 31 32 33 34 33 33 33 33 34 35 37 37 38 40 41 42 44 46 46 46 45 44 44 45 46 43 39 36 35
25 23 22 20 20 19 20 21 22 24 26 27 29 30 32 32 32 32 32 32 33 34 35 36 37 38 40 41 43 44 45 46 46 45 44 43 43 43 41 38 36 36
26 23 22 21 19 20 20 21 23 24 25 27 28 30 31 31 31 31 31 32 32 33 35 36 37 39 40 42 43 44 44 45 44 42 40 40 41 40 40 39 38 37
26 23 22 20 19 19 20 21 23 24 25 27 28 29 30 30 30 30 31 31 32 33 35 36 38 40 41 41 42 43 44 43 42 40 39 39 41 42 41 41 41 40
26 23 21 20 19 20 20 21 22 23 24 26 27 28 28 28 29 30 30 31 32 33 34 37 39 40 40 41 42 43 43 41 39 39 40 40 41 42 42 40 40 41
26 23 21 19 19 20 20 21 21 22 24 26 27 27 27 28 28 29 30 31 32 33 35 37 39 39 39 40 41 41 40 38 37 36 37 38 39 38 38 37 37 39
25 22 20 19 19 20 20 20 21 22 24 25 26 26 26 27 27 28 30 31 32 34 35 37 38 38 39 39 38 38 36 35 36 37 37 38 38 38 38 37 37 37
24 21 19 19 19 19 19 19 20 22 23 24 25 25 25 26 27 28 29 31 33 34 35 37 37 37 37 38 36 34 33 33 35 37 38 38 38 38 38 38 37 37
23 20 19 19 19 18 18 19 20 21 23 23 24 24 25 25 26 27 29 30 32 34 35 36 36 36 36 36 36 33 30 30 33 36 38 39 39 38 38 38 38 38
22 20 19 19 18 18 18 18 19 21 22 22 23 23 24 24 25 27 28 30 32 34 35 36 35 35 35 34 35 33 28 28 32 35 38 38 38 38 37 37 37 38
21 20 19 18 17 17 17 18 19 20 21 21 22 23 24 24 25 26 27 28 31 33 35 35 34 34 34 33 33 31 28 29 33 35 36 36 35 35 36 36 36 37
21 19 18 17 16 16 16 17 19 19 19 21 22 23 24 24 25 26 27 28 29 32 34 34 33 32 32 32 33 30 28 29 32 33 34 34 34 34 35 36 36 37
20 19 18 16 15 15 16 17 18 18 18 20 22 23 23 24 25 25 26 28 29 31 34 33 31 30 30 32 32 30 29 31 33 34 35 35 36 36 35 35 35 36
20 18 17 15 14 15 16 16 16 16 18 20 22 23 23 24 25 25 26 27 29 30 32 33 32 31 31 33 32 29 30 33 34 34 35 37 38 36 34 34 34 35
19 17 15 14 14 14 15 15 15 15 18 21 23 23 23 23 25 25 25 26 28 29 30 31 32 31 30 32 31 28 30 33 34 36 38 41 43 42 40 37 36 36
18 16 14 13 13 14 14 13 14 15 18 21 23 24 23 23 24 25 26 26 27 29 29 29 31 31 31 32 30 29 30 32 35 40 43 45 46 47 48 45 40 38
16 14 13 12 13 13 12 12 13 15 19 22 23 23 23 23 24 25 26 26 27 28 29 29 31 32 32 32 30 29 30 31 35 39 43 45 45 46 47 45 41 37
Wind_Direction
235 239 244 249 255 261 265 269 274 279 288 294 299 303 305 307 307 307 308 308 309 308 308 308 308 308 307 306 305 303 301 301 299 298 296 292 289 287 284 282 279 278
234 238 243 248 255 259 263 268 275 283 291 297 302 306 308 310 310 310 311 311 310 310 310 310 310 309 309 307 306 304 302 301 300 298 295 290 287 285 283 281 281 279
233 238 242 248 253 257 262 270 279 288 295 300 304 308 311 312 312 312 313 313 312 312 312 312 312 312 310 309 306 304 303 301 300 298 294 290 287 285 283 282 282 280
232 236 241 246 250 256 264 274 284 292 297 302 306 310 312 312 313 314 314 314 314 315 315 314 314 313 310 308 306 305 304 303 302 301 295 291 290 287 284 283 282 281
231 235 239 244 249 256 267 277 286 293 299 305 309 311 312 313 315 316 316 316 316 316 316 315 314 312 310 309 308 307 307 306 305 303 297 293 292 287 284 284 283 282
230 234 238 243 249 259 270 279 287 294 300 306 309 310 311 314 315 316 317 317 317 317 317 316 314 313 312 311 311 310 309 308 306 302 297 294 291 286 283 284 284 282
229 233 238 244 252 262 272 281 289 296 302 305 308 309 312 315 317 317 318 318 317 318 317 316 315 315 315 314 313 311 309 307 305 302 297 294 291 287 284 283 282 278
228 232 238 245 255 264 274 283 291 297 302 304 307 310 313 316 318 318 318 318 318 318 317 316 316 316 316 315 313 312 309 306 304 301 297 296 294 290 287 284 277 271
228 232 239 246 257 266 276 286 292 297 301 303 307 312 315 317 318 318 318 318 317 317 317 317 317 317 316 315 313 311 308 306 305 301 297 296 295 293 290 285 275 268
227 232 239 248 258 268 278 286 292 296 299 303 309 313 317 318 318 317 317 317 317 317 317 317 317 317 315 314 312 310 309 307 306 303 299 296 295 293 290 284 275 270
226 232 240 249 259 269 279 285 290 295 299 305 311 315 317 317 317 316 316 316 317 317 317 317 317 316 315 313 312 311 310 308 307 305 301 297 295 294 293 288 279 277
226 232 241 250 260 270 279 284 290 295 301 307 312 315 316 316 316 316 315 316 317 317 317 317 316 315 314 314 313 312 312 311 309 307 301 298 297 296 297 294 287 285
227 233 241 251 261 270 277 283 289 296 303 309 313 314 315 315 315 315 316 317 317 317 317 316 315 315 315 316 315 315 315 314 311 308 305 302 301 299 298 297 292 290
227 234 242 252 262 270 277 283 290 299 306 310 313 314 315 315 315 315 316 317 317 317 316 316 315 317 318 318 318 318 318 316 312 309 306 302 300 298 297 296 292 289
227 234 243 253 262 270 277 285 293 301 307 310 312 314 315 315 315 316 316 316 317 317 316 316 317 319 321 320 320 321 320 315 308 303 299 296 293 291 289 287 285 283
227 235 244 253 262 270 278 288 296 303 307 309 312 314 315 316 315 316 316 317 317 316 316 317 319 321 321 321 322 322 318 311 305 301 298 295 291 288 286 284 283 280
227 236 245 254 263 271 281 290 297 303 306 309 312 315 316 316 316 316 317 317 316 316 317 318 320 321 322 322 323 321 316 309 304 300 297 294 291 289 287 286 285 283
228 236 246 255 263 273 283 291 298 302 306 310 313 316 316 315 316 316 317 316 315 315 317 318 320 321 322 323 323 321 316 307 300 298 296 294 292 289 288 287 286 285
229 237 246 255 264 275 284 291 298 301 306 311 314 316 315 315 316 315 315 315 315 316 317 318 320 321 322 324 324 321 317 306 299 298 295 293 291 289 288 287 286 285
229 237 247 257 265 276 285 291 297 301 307 313 315 315 314 314 315 314 315 315 315 316 316 317 321 322 324 326 325 324 319 308 301 298 295 292 290 289 288 286 285 285
230 238 248 258 267 277 285 290 296 302 309 314 315 314 313 313 314 314 314 315 316 316 316 318 321 324 327 328 329 331 324 311 304 301 298 295 294 292 289 286 284 284
231 240 249 259 268 277 284 290 297 304 311 315 314 312 312 313 313 314 316 316 317 317 316 317 321 327 331 333 336 336 326 313 308 305 301 300 300 296 291 286 284 283
232 241 251 260 269 276 283 290 299 307 313 314 312 310 311 312 313 315 317 317 317 317 316 318 325 333 337 339 341 338 323 313 310 306 302 303 303 300 295 289 284 283
233 242 252 261 268 274 282 293 302 309 314 312 309 309 311 313 314 315 317 318 317 317 319 323 329 336 341 343 343 334 319 312 310 309 307 306 306 305 302 296 288 285
234 244 253 260 267 274 284 295 304 312 314 310 307 309 311 313 315 315 317 319 318 318 323 329 333 339 345 347 342 329 317 313 313 313 312 310 309 308 308 304 298 293
234 245 254 259 266 277 288 297 308 313 312 307 306 308 311 314 317 317 317 320 320 322 330 337 340 344 348 349 342 330 320 317 316 315 314 312 311 309 308 306 303 298